Philadelphia, PA

8:15 PM EST on November 22, 2019 (GMT -0500)
Philadelphia International

Weather History for KPHL - September, 2019

Change the Weather History Date:

Saturday, September 28, 2019

  Actual Average Record
Temperature  
Mean Temperature 74 °F 64 °F  
Max Temperature 85 °F 73 °F 91 °F (1886)
Min Temperature 62 °F 55 °F 37 °F (1957)
Degree Days  
Heating Degree Days 0 3  
Month to date heating degree days 2 28  
Since 1 July heating degree days 2 29  
Cooling Degree Days 9 2  
Month to date cooling degree days 222 158  
Year to date cooling degree days 1556 1275  
Growing Degree Days 23 (Base 50)    
Moisture  
Dew Point 66 °F    
Average Humidity 73    
Maximum Humidity 90    
Minimum Humidity 55    
Precipitation  
Precipitation 0.16 in 0.13 in 3.22 in (2004)
Month to date precipitation 1.16 3.51  
Year to date precipitation 37.19 31.53  
Snow  
Snow 0.00 in 0.00 in 0.00 in ()
Month to date snowfall 0.0 0.0  
Since 1 July snowfall 0.0 0.0  
Since 1 September snowfall 0.0 0.0  
Snow Depth 0.00 in    
Sea Level Pressure  
Sea Level Pressure 30.10 in    
Wind  
Wind Speed 7 mph (SW)    
Max Wind Speed 17 mph    
Max Gust Speed 21 mph    
Visibility 10 miles    
Events Rain , Thunderstorm    
T = Trace of Precipitation, MM = Missing Value Source: NWS Daily Summary

Daily Weather History Graph

Daily Weather History Graph

Search for Another Location

Airport or City:

Astronomy

Sep. 28, 2019 Rise Set
Actual Time 6:54 AM EDT 6:48 PM EDT
Civil Twilight 6:27 AM EDT 7:15 PM EDT
Nautical Twilight 5:55 AM EDT 7:46 PM EDT
Astronomical Twilight 5:23 AM EDT 8:18 PM EDT
Moon 6:27 AM EDT (9/28) 7:12 PM EDT (9/28)
Length of Visible Light 12h 48m
Length of Day
11h 54m
Waning Crescent, 0% of the Moon is Illuminated
Sep 28
Waning Crescent
Sep 28
New
Oct 5
First Quarter
Oct 13
Full
Oct 21
Last Quarter

Hourly Weather History & Observations

Time (EDT) Temp. Heat Index Dew Point Humidity Pressure Visibility Wind Dir Wind Speed Gust Speed Precip Events Conditions
12:54 AM 64.9 °F - 57.9 °F 78% 30.13 in 10.0 mi SSE 3.5 mph - N/A   Scattered Clouds
1:54 AM 64.9 °F - 59.0 °F 81% 30.13 in 10.0 mi South 3.5 mph - N/A   Scattered Clouds
2:54 AM 64.9 °F - 60.1 °F 84% 30.12 in 10.0 mi South 5.8 mph - N/A   Mostly Cloudy
3:54 AM 64.0 °F - 60.1 °F 87% 30.11 in 10.0 mi SSW 6.9 mph - N/A   Mostly Cloudy
4:54 AM 64.0 °F - 59.0 °F 84% 30.13 in 10.0 mi South 4.6 mph - N/A   Mostly Cloudy
5:54 AM 63.0 °F - 59.0 °F 87% 30.13 in 10.0 mi South 4.6 mph - N/A   Mostly Cloudy
6:54 AM 63.0 °F - 59.0 °F 87% 30.13 in 10.0 mi Calm Calm - N/A   Scattered Clouds
7:54 AM 64.9 °F - 61.0 °F 87% 30.14 in 10.0 mi South 4.6 mph - N/A   Scattered Clouds
8:54 AM 68.0 °F - 61.0 °F 78% 30.13 in 10.0 mi SSW 6.9 mph - N/A   Scattered Clouds
9:54 AM 71.1 °F - 62.1 °F 73% 30.13 in 10.0 mi SSW 6.9 mph - N/A   Mostly Cloudy
10:12 AM 73.0 °F - 63.0 °F 71% 30.13 in 10.0 mi WSW 8.1 mph - N/A   Overcast
10:47 AM 75.9 °F - 64.0 °F 67% 30.12 in 10.0 mi WSW 5.8 mph - N/A   Mostly Cloudy
10:54 AM 75.0 °F - 64.0 °F 69% 30.12 in 10.0 mi West 8.1 mph - N/A   Mostly Cloudy
11:54 AM 80.1 °F 82.1 °F 66.0 °F 62% 30.11 in 10.0 mi SW 11.5 mph - N/A   Scattered Clouds
12:54 PM 81.0 °F 83.0 °F 66.0 °F 60% 30.10 in 10.0 mi WSW 13.8 mph - N/A   Mostly Cloudy
1:54 PM 82.0 °F 84.1 °F 66.0 °F 58% 30.08 in 10.0 mi WSW 12.7 mph - N/A   Mostly Cloudy
2:54 PM 84.0 °F 86.5 °F 66.9 °F 56% 30.06 in 10.0 mi SW 15.0 mph - N/A   Scattered Clouds
3:54 PM 84.0 °F 87.0 °F 68.0 °F 58% 30.04 in 10.0 mi SW 9.2 mph - N/A   Scattered Clouds
4:54 PM 84.0 °F 87.0 °F 68.0 °F 58% 30.03 in 10.0 mi SW 8.1 mph - N/A   Scattered Clouds
5:54 PM 84.0 °F 87.8 °F 69.1 °F 61% 30.03 in 10.0 mi WSW 9.2 mph - N/A   Scattered Clouds
6:54 PM 82.0 °F 85.9 °F 70.0 °F 67% 30.06 in 10.0 mi SW 8.1 mph - N/A   Scattered Clouds
7:54 PM 80.1 °F 82.9 °F 69.1 °F 69% 30.06 in 10.0 mi South 4.6 mph - N/A   Mostly Cloudy
8:54 PM 78.1 °F - 70.0 °F 76% 30.07 in 10.0 mi South 4.6 mph - N/A   Mostly Cloudy
9:54 PM 77.0 °F - 70.0 °F 79% 30.09 in 10.0 mi SSW 4.6 mph - N/A   Overcast
10:11 PM 77.0 °F - 70.0 °F 79% 30.09 in 10.0 mi Calm Calm - 0.00 in Rain , Thunderstorm Light Thunderstorms and Rain
10:23 PM 77.0 °F - 71.1 °F 82% 30.11 in 10.0 mi WNW 6.9 mph - 0.00 in Thunderstorm Thunderstorm
10:26 PM 78.1 °F - 71.1 °F 79% 30.11 in 7.0 mi NW 13.8 mph - 0.00 in Rain , Thunderstorm Light Thunderstorms and Rain
10:32 PM 75.9 °F - 71.1 °F 85% 30.11 in 4.0 mi NW 10.4 mph - 0.01 in Rain , Thunderstorm Light Thunderstorms and Rain
10:37 PM 75.0 °F - 71.1 °F 87% 30.11 in 7.0 mi NW 5.8 mph - 0.16 in Rain , Thunderstorm Light Thunderstorms and Rain
10:42 PM 75.9 °F - 69.1 °F 79% 30.11 in 10.0 mi Variable 6.9 mph - 0.16 in Thunderstorm Thunderstorm
10:54 PM 75.9 °F - 68.0 °F 76% 30.10 in 10.0 mi NE 4.6 mph - 0.16 in Thunderstorm Thunderstorm
11:10 PM 73.9 °F - 70.0 °F 87% 30.10 in 10.0 mi SE 6.9 mph - N/A Thunderstorm Thunderstorm
11:34 PM 73.9 °F - 71.1 °F 91% 30.10 in 10.0 mi Calm Calm - N/A   Overcast
11:54 PM 73.9 °F - 71.1 °F 91% 30.10 in 10.0 mi East 4.6 mph - 0.00 in Rain Light Rain